[[{"header":{"parameterUnit":"m.s-1","parameterCategory":1,"la1":30.2991,"la2":30.254,"lo1":-89.0895,"lo2":-89.0444,"dy":0.0017,"dx":0.0017,"nx":28,"ny":28,"refTime":"2025-08-08T03:00:00:Z","depth":0,"parameterNumber":2,"parameterNumberName":"U-component_of_WINDS"},"data":[0,0,0,0,0,0,0,0,0,0,0,0,0,0,0,0,0,0,0,0,0,0,0,0,0,0,0,0,0,0,0,0,0,0,0,0,0,0,0,0,0,0,0,0,0,0,0,0,0,0,0,0,0,0,0,0,0,0,-4.3162,-4.3163,0,-4.3224,-4.3225,-4.3226,-4.3156,-4.3153,-4.3151,-4.3148,-4.3214,-4.3219,-4.3223,0,0,0,0,0,0,0,0,0,0,0,0,0,-4.2987,-4.2991,-4.3162,-4.3163,-4.3164,-4.3224,-4.3225,-4.3226,-4.3156,-4.3153,-4.315,-4.3147,-4.3213,-4.3218,-4.3223,0,0,0,0,0,0,0,0,0,0,0,0,0,-4.3058,-4.2992,-4.3162,-4.3136,-4.3135,-4.3224,-4.3225,-4.3226,-4.3157,-4.3153,-4.3149,-4.3145,-4.3211,-4.3218,-4.3224,-4.3342,0,0,-4.3243,-4.3246,0,0,0,0,0,0,0,0,-4.3054,-4.3064,-4.3139,-4.3138,-4.3137,-4.3178,-4.3187,-4.3265,-4.3158,-4.3149,-4.3148,-4.3143,-4.3206,-4.3212,-4.3233,-4.3345,-4.3348,-4.3244,-4.3248,-4.325,-4.3252,0,0,0,0,0,0,0,-4.3049,-4.3061,-4.3187,-4.3141,-4.3139,-4.3123,-4.3128,-4.3202,-4.3199,-4.3149,-4.3144,-4.3152,-4.3204,-4.3227,-4.3234,-4.3349,-4.3244,-4.3249,-4.3253,-4.3256,-4.3564,-4.3568,0,0,0,0,0,0,-4.3047,-4.3058,-4.3185,-4.3189,-4.3084,-4.3129,-4.3135,-4.3169,-4.3198,-4.3198,-4.3156,-4.3149,-4.3218,-4.3226,-4.3236,-4.3378,-4.325,-4.3256,-4.326,-4.356,-4.3565,-4.357,0,0,0,0,0,0,-4.3043,-4.3059,-4.3182,-4.3122,-4.3136,-4.3136,-4.3175,-4.3172,-4.3195,-4.3203,-4.3202,-4.3179,-4.3215,-4.3227,-4.3317,-4.3379,-4.3259,-4.3265,-4.3555,-4.3561,-4.3567,-4.3662,0,0,0,0,0,0,-4.3038,-4.3058,-4.3102,-4.3123,-4.314,-4.3261,-4.3178,-4.3176,-4.3205,-4.3197,-4.3224,-4.3225,-4.3213,-4.3307,-4.3323,-4.3386,-4.327,-4.3549,-4.3558,-4.3565,-4.3653,-4.3671,-4.3686,0,0,0,0,0,-4.3032,-4.3127,-4.3105,-4.312,-4.3195,-4.3265,-4.3274,-4.3258,-4.3211,-4.3256,-4.3261,-4.3224,-4.3369,-4.3317,-4.3334,-4.34,-4.3545,-4.3555,-4.3565,-4.3646,-4.3667,-4.3685,0,0,0,0,0,0,-4.3113,-4.3129,-4.3105,-4.3208,-4.3236,-4.3253,-4.3309,-4.3281,-4.3323,-4.3313,-4.3291,-4.3298,-4.3394,-4.3405,-4.3347,-4.3517,-4.345,-4.3463,-4.3506,-4.3526,-4.3542,-4.3538,-4.3275,0,0,0,0,0,-4.3143,-4.3198,-4.3208,-4.3299,-4.3314,-4.331,-4.3339,-4.3324,-4.3352,-4.3363,-4.3375,-4.3405,-4.3457,-4.3492,-4.354,-4.3654,-4.366,-4.3708,-4.3724,-4.3737,-4.375,-4.3813,-4.3834,-4.3602,-4.3602,-4.3602,0,0,-4.3206,-4.3221,-4.3257,-4.3316,-4.3335,-4.3393,-4.332,-4.3384,-4.3428,-4.3373,-4.3459,-4.3469,-4.35,-4.3603,-4.3649,-4.3616,-4.3815,-4.375,-4.3761,-4.3766,-4.3825,-4.3847,-4.3867,-4.3609,-4.3608,-4.3607,0,0,-4.3349,-4.3365,-4.3443,-4.3464,-4.3494,-4.3491,-4.351,-4.3532,-4.3536,-4.3621,-4.3582,-4.3634,-4.3724,-4.3748,-4.3773,-4.3927,-4.3895,-4.3943,-4.4029,-4.409,-4.4109,-4.4125,-4.4181,-4.4202,-4.3955,-4.3955,-4.3956,0,-4.3423,-4.3508,-4.3487,-4.3555,-4.3582,-4.3535,-4.3615,-4.3636,-4.3681,-4.3702,-4.3664,-4.3777,-4.3795,-4.3903,-4.3941,-4.3961,-4.3983,-4.394,-4.4108,-4.4124,-4.4138,-4.4192,-4.4213,-4.3961,-4.396,-4.396,-4.3959,0,-4.3599,-4.3659,-4.3718,-4.3762,-4.3796,-4.387,-4.386,-4.3898,-4.388,-4.3881,-4.3969,-4.3989,-4.4041,-4.4065,-4.4048,-4.4172,-4.4151,-4.4111,-4.4043,-4.4167,-4.4217,-4.4237,-4.3969,-4.3967,-4.3966,-4.3964,0,0,-4.3796,-4.3827,-4.3849,-4.3869,-4.3899,-4.3946,-4.4018,-4.4068,-4.4101,-4.4134,-4.4195,-4.4272,-4.4235,-4.4263,-4.4248,-4.4302,-4.4425,-4.4255,-4.4256,-4.4288,-4.4565,-4.4596,-4.462,-4.4404,-4.4407,-4.441,-4.4562,0,-4.3941,-4.4064,-4.4047,-4.4166,-4.4222,-4.4179,-4.4241,-4.4267,-4.427,-4.4319,-4.4322,-4.4379,-4.4325,-4.4342,-4.4393,-4.4399,-4.448,-4.4388,-4.4462,-4.4465,-4.4456,-4.4646,-4.4678,-4.4821,-4.4582,-4.4585,-4.4587,0,-4.4127,-4.4166,-4.4291,-4.4313,-4.4336,-4.4392,-4.4438,-4.4484,-4.4513,-4.4512,-4.4543,-4.4519,-4.4593,-4.4523,-4.4625,-4.4562,-4.4591,-4.4599,-4.4605,-4.4612,-4.4534,-4.466,-4.4866,-4.4888,-4.4618,-4.4615,-4.4613,0,-4.426,-4.4344,-4.4429,-4.4448,-4.4475,-4.4517,-4.453,-4.4555,-4.4587,-4.4627,-4.4648,-4.4696,-4.4723,-4.4762,-4.4752,-4.4702,-4.4857,-4.4786,-4.4859,-4.486,-4.4895,-4.4893,-4.511,-4.4912,-4.4911,-4.4911,-4.491,0,-4.4425,-4.4503,-4.449,-4.4543,-4.463,-4.461,-4.4697,-4.4705,-4.4728,-4.4783,-4.4748,-4.48,-4.4783,-4.4836,-4.4829,-4.4915,-4.4927,-4.4929,-4.4927,-4.4933,-4.4933,-4.4953,-4.4944,-4.4917,-4.4915,-4.4914,-4.4913,0,-4.4589,-4.4582,-4.4673,-4.4692,-4.4699,-4.4762,-4.4779,-4.483,-4.4829,-4.4899,-4.4915,-4.4916,-4.4975,-4.4969,-4.5036,-4.5031,-4.5139,-4.5124,-4.5129,-4.5126,-4.5201,-4.5194,-4.5439,-4.5471,-4.525,-4.5253,-4.5254,0,-4.4695,-4.4754,-4.478,-4.4813,-4.483,-4.4885,-4.4917,-4.49,-4.4935,-4.4973,-4.502,-4.5076,-4.512,-4.5217,-4.5225,-4.5276,-4.5263,-4.5346,-4.5271,-4.5276,-4.5267,-4.5264,-4.5271,-4.5361,-4.5363,-4.5365,-4.5367,0,-4.4885,-4.4879,-4.4926,-4.4973,-4.5012,-4.5048,-4.5081,-4.5111,-4.5097,-4.5139,-4.5199,-4.5233,-4.5301,-4.5358,-4.5407,-4.5422,-4.5394,-4.539,-4.541,-4.5418,-4.542,-4.5422,-4.5171,-4.5385,-4.5383,-4.5382,-4.5381,-4.538,-4.5024,-4.5075,-4.5101,-4.5156,-4.5178,-4.521,-4.5258,-4.5264,-4.5314,-4.5368,-4.5355,-4.5423,-4.5452,-4.5514,-4.5535,-4.5589,-4.5559,-4.5588,-4.5596,-4.5603,-4.5613,-4.541,-4.5598,-4.5597,-4.5597,-4.5596,-4.5596,0,-4.5214,-4.5228,-4.5278,-4.5325,-4.5368,-4.5335,-4.537,-4.5409,-4.5469,-4.5497,-4.5542,-4.5612,-4.5667,-4.5679,-4.5732,-4.5773,-4.5762,-4.5788,-4.5786,-4.579,-4.5635,-4.5613,-4.5797,-4.5797,-4.5797,-4.5797,-4.5797,-4.5796,-4.5318,-4.5403,-4.54,-4.5497,-4.5511,-4.5577,-4.56,-4.5629,-4.5652,-4.5732,-4.5777,-4.5784,-4.5807,-4.5861,-4.5911,-4.5913,-4.5935,-4.5968,-4.5965,-4.5821,-4.5801,-4.5782,-4.5761,-4.5972,-4.5972,-4.6115,-4.6117,-4.6118]},{"header":{"parameterUnit":"m.s-1","parameterCategory":1,"la1":30.2991,"la2":30.254,"lo1":-89.0895,"lo2":-89.0444,"dy":0.0017,"dx":0.0017,"nx":28,"ny":28,"refTime":"2025-08-08T03:00:00:Z","depth":0,"parameterNumber":3,"parameterNumberName":"V-component_of_WINDS"},"data":[0,0,0,0,0,0,0,0,0,0,0,0,0,0,0,0,0,0,0,0,0,0,0,0,0,0,0,0,0,0,0,0,0,0,0,0,0,0,0,0,0,0,0,0,0,0,0,0,0,0,0,0,0,0,0,0,0,0,-2.8566,-2.8565,0,-2.8481,-2.848,-2.8479,-2.8385,-2.8384,-2.8383,-2.8381,-2.8289,-2.8288,-2.8286,0,0,0,0,0,0,0,0,0,0,0,0,0,-2.8645,-2.8644,-2.8566,-2.8565,-2.8564,-2.8481,-2.848,-2.8478,-2.8386,-2.8384,-2.8382,-2.8381,-2.8289,-2.8288,-2.8286,0,0,0,0,0,0,0,0,0,0,0,0,0,-2.859,-2.8643,-2.8566,-2.8508,-2.8502,-2.8481,-2.848,-2.8478,-2.8386,-2.8384,-2.8382,-2.838,-2.829,-2.8288,-2.8286,-2.8315,0,0,-2.8281,-2.828,0,0,0,0,0,0,0,0,-2.8593,-2.8587,-2.8517,-2.8512,-2.8505,-2.8442,-2.8473,-2.8423,-2.8386,-2.843,-2.8381,-2.8379,-2.8341,-2.8335,-2.8323,-2.831,-2.8306,-2.828,-2.8279,-2.8279,-2.8278,0,0,0,0,0,0,0,-2.8597,-2.859,-2.8532,-2.8517,-2.8509,-2.8484,-2.8474,-2.8463,-2.8397,-2.8426,-2.8419,-2.841,-2.8337,-2.8325,-2.832,-2.8305,-2.828,-2.8279,-2.8278,-2.8277,-2.8311,-2.8313,0,0,0,0,0,0,-2.861,-2.8594,-2.8535,-2.853,-2.8545,-2.8485,-2.8473,-2.8464,-2.8397,-2.8385,-2.8412,-2.8406,-2.8329,-2.8322,-2.8317,-2.8345,-2.8279,-2.8277,-2.8276,-2.8309,-2.8311,-2.8313,0,0,0,0,0,0,-2.8612,-2.8606,-2.8538,-2.856,-2.8549,-2.8485,-2.8475,-2.8463,-2.8451,-2.8387,-2.8374,-2.8412,-2.8327,-2.8319,-2.8316,-2.8341,-2.8276,-2.8274,-2.8306,-2.831,-2.8312,-2.8403,0,0,0,0,0,0,-2.8615,-2.8607,-2.8619,-2.8561,-2.8549,-2.8541,-2.8477,-2.8463,-2.8449,-2.844,-2.8384,-2.8372,-2.8325,-2.8319,-2.8314,-2.8337,-2.8273,-2.8304,-2.8308,-2.8311,-2.8398,-2.8409,-2.8419,0,0,0,0,0,-2.8618,-2.8647,-2.862,-2.8613,-2.8562,-2.8543,-2.8535,-2.8482,-2.8451,-2.8461,-2.842,-2.8374,-2.8339,-2.832,-2.8313,-2.8336,-2.8302,-2.8307,-2.8311,-2.8393,-2.8407,-2.8419,0,0,0,0,0,0,-2.8707,-2.8638,-2.8607,-2.8618,-2.8587,-2.8527,-2.8538,-2.8498,-2.8474,-2.8467,-2.84,-2.8388,-2.8393,-2.8364,-2.8344,-2.836,-2.8314,-2.8317,-2.8379,-2.8391,-2.8401,-2.8408,-2.8271,0,0,0,0,0,-2.8729,-2.872,-2.866,-2.8675,-2.8661,-2.8603,-2.8592,-2.8554,-2.8519,-2.8505,-2.8463,-2.8429,-2.841,-2.8399,-2.8378,-2.8393,-2.8379,-2.8406,-2.8416,-2.8425,-2.8428,-2.8434,-2.8445,-2.8328,-2.8328,-2.8328,0,0,-2.8772,-2.8733,-2.8731,-2.8692,-2.8664,-2.8655,-2.8592,-2.8586,-2.8579,-2.8503,-2.8498,-2.8467,-2.8424,-2.843,-2.8431,-2.8406,-2.8458,-2.8431,-2.8438,-2.8437,-2.8439,-2.845,-2.846,-2.8331,-2.8331,-2.833,0,0,-2.8846,-2.8816,-2.8826,-2.8799,-2.8757,-2.8718,-2.8721,-2.8666,-2.8643,-2.8638,-2.858,-2.857,-2.8539,-2.8511,-2.8493,-2.8557,-2.8513,-2.8552,-2.8606,-2.8612,-2.8621,-2.8629,-2.8651,-2.866,-2.8556,-2.8556,-2.8556,0,-2.8905,-2.8891,-2.8835,-2.8833,-2.8817,-2.875,-2.8758,-2.8734,-2.8687,-2.8677,-2.8651,-2.8611,-2.8577,-2.8576,-2.8592,-2.8579,-2.8579,-2.8558,-2.8625,-2.8632,-2.8638,-2.8659,-2.8668,-2.8561,-2.856,-2.856,-2.8559,0,-2.8965,-2.8957,-2.8969,-2.8927,-2.8913,-2.8916,-2.8859,-2.8851,-2.8814,-2.8777,-2.8772,-2.8729,-2.8699,-2.8695,-2.8658,-2.8689,-2.8675,-2.8638,-2.859,-2.8656,-2.8673,-2.8681,-2.8568,-2.8566,-2.8565,-2.8564,0,0,-2.9093,-2.9021,-2.9026,-2.9006,-2.8955,-2.8947,-2.8946,-2.8918,-2.8912,-2.8882,-2.8879,-2.8855,-2.882,-2.8799,-2.8759,-2.8764,-2.8817,-2.8726,-2.8724,-2.8744,-2.8846,-2.8875,-2.8885,-2.8788,-2.8789,-2.879,-2.885,0,-2.9158,-2.9155,-2.9105,-2.9115,-2.9106,-2.9042,-2.9041,-2.9009,-2.8975,-2.8961,-2.8922,-2.8906,-2.8862,-2.8849,-2.8852,-2.881,-2.8837,-2.8805,-2.8783,-2.8783,-2.8796,-2.8894,-2.8924,-2.8982,-2.8857,-2.8858,-2.8859,0,-2.9233,-2.9209,-2.922,-2.9168,-2.9163,-2.9163,-2.9133,-2.9121,-2.9083,-2.9057,-2.9035,-2.899,-2.8984,-2.894,-2.893,-2.891,-2.8898,-2.8876,-2.8877,-2.8872,-2.8825,-2.8891,-2.8999,-2.9008,-2.8869,-2.8868,-2.8868,0,-2.9325,-2.9295,-2.9297,-2.9282,-2.9223,-2.9225,-2.9199,-2.9159,-2.9146,-2.9119,-2.9109,-2.9081,-2.9066,-2.9045,-2.8992,-2.8965,-2.8988,-2.894,-2.8965,-2.8967,-2.8973,-2.8973,-2.9079,-2.8966,-2.8966,-2.8966,-2.8966,0,-2.9403,-2.9411,-2.9338,-2.9339,-2.9346,-2.9288,-2.9296,-2.9265,-2.923,-2.9223,-2.9165,-2.9159,-2.9091,-2.9076,-2.9035,-2.9033,-2.9026,-2.9004,-2.8993,-2.9009,-2.9012,-2.9,-2.8994,-2.8968,-2.8968,-2.8967,-2.8967,0,-2.9506,-2.9457,-2.9455,-2.94,-2.9386,-2.9394,-2.9345,-2.9343,-2.9306,-2.9297,-2.9292,-2.9232,-2.9213,-2.9159,-2.9124,-2.9097,-2.9106,-2.9085,-2.9119,-2.9112,-2.9141,-2.9139,-2.9243,-2.9253,-2.9134,-2.9136,-2.9137,0,-2.9559,-2.9564,-2.9509,-2.9501,-2.9479,-2.9467,-2.9453,-2.9395,-2.9383,-2.934,-2.9343,-2.9319,-2.9297,-2.9268,-2.9221,-2.9194,-2.9172,-2.921,-2.9168,-2.9184,-2.9172,-2.9172,-2.9172,-2.922,-2.9221,-2.9223,-2.9224,0,-2.9657,-2.9633,-2.9616,-2.959,-2.9576,-2.9553,-2.9526,-2.9522,-2.9457,-2.9446,-2.9426,-2.9409,-2.9375,-2.9352,-2.9318,-2.929,-2.9246,-2.9238,-2.9242,-2.9258,-2.9278,-2.9267,-2.9144,-2.9235,-2.9234,-2.9233,-2.9233,-2.9232,-2.9736,-2.9738,-2.97,-2.9682,-2.9657,-2.9633,-2.9629,-2.9591,-2.9574,-2.9544,-2.951,-2.9494,-2.9454,-2.9405,-2.938,-2.9365,-2.9342,-2.9348,-2.935,-2.9352,-2.9359,-2.9281,-2.9359,-2.9358,-2.9358,-2.9357,-2.9357,0,-2.9831,-2.9803,-2.9788,-2.9754,-2.974,-2.9701,-2.967,-2.966,-2.9648,-2.9615,-2.9595,-2.9572,-2.9549,-2.9501,-2.9473,-2.947,-2.9449,-2.9465,-2.9464,-2.9458,-2.9382,-2.9381,-2.9482,-2.9482,-2.9482,-2.9482,-2.9482,-2.9482,-2.9878,-2.9879,-2.9851,-2.9838,-2.9809,-2.9795,-2.978,-2.9757,-2.9731,-2.9709,-2.969,-2.9659,-2.962,-2.9589,-2.9566,-2.9551,-2.9543,-2.9566,-2.9545,-2.9475,-2.9463,-2.9452,-2.945,-2.9565,-2.9565,-2.9622,-2.9622,-2.9623]}]]